Flag for Netherlands Weather past 2 weeks in Amersfoort, Netherlands

Now
46 °F

Cool.


Feels Like: 41 °F
Forecast: 37 / 56 °F
Wind: 10 mph from Northeast

Location: Deelen

Current Time: Apr 18, 2015 at 10:01:45 AM

Latest Report: Apr 18, 2015 at 9:25 AM


Visibility: N/A

Pressure: 30.36 "Hg

Humidity: 66%

Dew point: 36 °F

Location of AmersfoortLocation

Historic Weather in Amersfoort — Graph

°F

Amersfoort temperature yesterday

Maximum temperature yesterday: 55 °F (at 2:25 PM)
Minimum temperature yesterday: 41 °F (at 11:55 PM)
Average temperature yesterday: 47 °F

Past Weeks' High & Low Weather Summary

 TemperatureHumidityPressure
High73 °F (Apr 15, 3:55 PM)100% (Apr 5, 5:25 AM)30.60 "Hg (Apr 5, 5:25 AM)
Low25 °F (Apr 5, 5:25 AM)31% (Apr 15, 4:55 PM)29.92 "Hg (Apr 11, 3:55 AM)
Average47 °F72%30.24 "Hg
* Reported Apr 3 8:25 AM — Apr 18 8:55 AM, Amersfoort, Weather by CustomWeather, © 2015

Note: Actual official high and low records may vary slightly from our data, if they occured in-between our weather recording intervals... More about our weather records

Advertising

Amersfoort weather history for previous 24 hours

 ConditionsComfort  
Time TempWeatherWind HumidityBarometerVisibility
8:55 AM
Sat, Apr 18
45 °FPassing clouds.10 mph76%30.36 "HgN/A
8:25 AM43 °FPassing clouds.10 mph81%30.33 "HgN/A
7:55 AM41 °FPassing clouds.12 mph87%30.33 "HgN/A
7:25 AM39 °FPassing clouds.12 mph87%30.33 "HgN/A
6:55 AM37 °FPassing clouds.12 mph93%30.30 "HgN/A
6:25 AM37 °FPassing clouds.12 mph93%30.30 "HgN/A
5:55 AM37 °FPassing clouds.12 mph93%30.30 "HgN/A
5:25 AM37 °FPassing clouds.9 mph93%30.30 "HgN/A
4:55 AM39 °FPassing clouds.7 mph87%30.30 "HgN/A
4:25 AM39 °FPassing clouds.10 mph87%30.30 "HgN/A
3:55 AM39 °FPassing clouds.9 mph87%30.27 "HgN/A
3:25 AM39 °FPassing clouds.8 mph87%30.27 "HgN/A
2:55 AM39 °FPassing clouds.7 mph87%30.27 "HgN/A
2:25 AM39 °FPassing clouds.8 mph87%30.27 "HgN/A
1:55 AM39 °FPassing clouds.8 mph87%30.27 "HgN/A
1:25 AM39 °FPassing clouds.7 mph87%30.27 "HgN/A
12:55 AM39 °FPassing clouds.7 mph81%30.27 "HgN/A
12:25 AM41 °FPassing clouds.9 mph76%30.24 "HgN/A
11:55 PM
Fri, Apr 17
41 °FPassing clouds.7 mph76%30.24 "HgN/A
11:25 PM43 °FQuite cool.8 mph71%30.24 "HgN/A
10:55 PM43 °FPassing clouds.8 mph71%30.21 "HgN/A
10:25 PM43 °FPassing clouds.7 mph71%30.21 "HgN/A
9:55 PM45 °FQuite cool.7 mph66%30.21 "HgN/A
9:25 PM45 °FPassing clouds.8 mph66%30.18 "HgN/A
8:55 PM46 °FPassing clouds.10 mph62%30.18 "HgN/A
8:25 PM48 °FPassing clouds.12 mph54%30.15 "HgN/A
7:55 PM50 °FCool.13 mph50%30.15 "HgN/A
7:25 PM50 °FPassing clouds.13 mph50%30.12 "HgN/A
6:55 PM52 °FCool.14 mph50%30.12 "HgN/A
6:25 PM54 °FPassing clouds.13 mph44%30.12 "HgN/A
5:55 PM52 °FPassing clouds.15 mph50%30.12 "HgN/A
5:25 PM54 °FPartly sunny.15 mph47%30.09 "HgN/A
4:55 PM55 °FPassing clouds.14 mph44%30.09 "HgN/A
4:25 PM55 °FScattered clouds.15 mph44%30.09 "HgN/A
3:55 PM52 °FPartly sunny.14 mph47%30.09 "HgN/A
3:25 PM54 °FOvercast.14 mph54%30.09 "HgN/A
2:55 PM55 °FPartly sunny.13 mph47%30.09 "HgN/A
2:25 PM55 °FPassing clouds.9 mph47%30.09 "HgN/A
1:55 PM52 °FCloudy.9 mph58%30.09 "HgN/A
1:25 PM52 °FBroken clouds.12 mph62%30.09 "HgN/A
12:55 PM52 °FScattered clouds.10 mph54%30.09 "HgN/A
12:25 PM50 °FPartly sunny.14 mph62%30.09 "HgN/A
11:55 AM50 °FPassing clouds.9 mph62%30.09 "HgN/A
11:25 AM48 °FOvercast.14 mph66%30.09 "HgN/A
10:55 AM48 °FPartly sunny.16 mph66%30.09 "HgN/A
10:25 AM48 °FPartly sunny.13 mph66%30.07 "HgN/A
Weather by CustomWeather, © 2015

See weather overviewHow to use our weather pages